Content
SEND FEEDBACK

Daily
Averages
Monthly
Summary
United States of America

CONCORDIA, MISSOURI


Home > North America > United States > Missouri
Elevation: 780 feet     Latitude: 38 59N     Longitude: 093 34W

WEATHER
 
SELECT A DAY
Number of Records: 145,437;   Date Range: 1/1/00 - 12/18/14
 
SHARE

PRINT THIS DATA

[ ← Previous Day ]
WEATHER ALMANAC - JANUARY 9, 2013
[ Next Day → ]
[ °C ]   °F
Weather ElementAverageHighLow
Temperature41 °F53.4 °F (1:55 pm)28.4 °F (7:55 am)
Dewpoint33.2 °F37.6 °F (9:55 am)28.4 °F (7:55 am)
Humidity76.6 %100 % (5:55 am)51 % (1:55 pm)
Barometer30.38 in30.43 in (9:55 am)30.25 in (1:55 am)
Wind Speed4.4 mph8.1 mph (1:55 pm)
Weather ElementAverage
Visibility10 mi
Wind DirectionESE (100 °)

Weather ElementTotal
Precipitation---
Heating Degree Days24.1 (Base 65)
Averaged from 23 records on January 9, 2013
WEATHER CONDITIONS BREAKOUT
WIND DIRECTION BREAKOUT
WEATHER BY HOUR - JANUARY 9, 2013
[ °C ]   °F
Local TimeTemperatureDewpointHumidityBarometerVisibilityWind DirectionWind SpeedGust SpeedPrecipitationEventsConditions
1:55 AM36.1 °F36.0 °F99 %30.25 in10.0 miSSW (200°)4.6 mphClear
2:55 AM33.1 °F32.9 °F99 %30.27 in10.0 miSSW (210°)5.8 mphClear
3:55 AM35.4 °F35.2 °F99 %30.28 in10.0 miWest (280°)3.5 mphClear
4:55 AM33.6 °F33.4 °F99 %30.30 in10.0 miCalmClear
5:55 AM29.3 °F29.3 °F100 %30.32 in10.0 miSouth (180°)5.8 mphClear
6:55 AM31.6 °F31.6 °F100 %30.34 in10.0 miCalmClear
7:55 AM28.4 °F28.4 °F100 %30.38 in9.0 miSouth (170°)3.5 mphClear
8:55 AM31.6 °F31.6 °F100 %30.42 in10.0 miSW (220°)4.6 mphClear
9:55 AM37.9 °F37.6 °F99 %30.43 in10.0 miCalmClear
10:55 AM45.5 °F34.7 °F66 %30.42 in10.0 miCalmPartly Cloudy
11:55 AM48.4 °F34.2 °F58 %30.40 in10.0 miCalmPartly Cloudy
12:55 PM51.4 °F34.2 °F52 %30.39 in10.0 miNE (40°)4.6 mphClear
1:55 PM53.4 °F35.4 °F51 %30.39 in10.0 miENE (60°)8.1 mphClear
2:55 PM53.2 °F36.9 °F54 %30.40 in10.0 miESE (120°)6.9 mphClear
3:55 PM53.2 °F36.1 °F52 %30.41 in10.0 miEast (90°)5.8 mphClear
4:55 PM48.9 °F35.6 °F60 %30.41 in10.0 miENE (70°)4.6 mphClear
5:55 PM45.0 °F33.1 °F63 %30.42 in10.0 miEast (80°)5.8 mphClear
6:55 PM43.2 °F32.9 °F67 %30.42 in10.0 miEast (80°)5.8 mphClear
7:55 PM44.1 °F32.5 °F64 %30.42 in10.0 miEast (90°)6.9 mphClear
8:55 PM40.8 °F31.5 °F69 %30.43 in10.0 miESE (110°)5.8 mphClear
9:55 PM40.8 °F30.6 °F67 %30.41 in10.0 miEast (100°)6.9 mphClear
10:55 PM38.5 °F30.0 °F72 %30.39 in10.0 miEast (100°)5.8 mphClear
11:55 PM39.0 °F30.6 °F72 %30.38 in10.0 miEast (100°)5.8 mphClear
Hourly data recorded from KSZL, located miles away from Concordia, Missouri







STORIES FROM OUR PARTNERS